Grand Forks, ND

3:00 AM CDT on June 29, 2017 (GMT -0500)
Grand Forks International

Weather History for KGFK - September, 2013

Change the Weather History Date:

Monday, September 9, 2013

  Actual Average Record
Temperature  
Mean Temperature 65 °F 60 °F  
Max Temperature 70 °F 73 °F 91 °F (1994)
Min Temperature 59 °F 47 °F 33 °F (2006)
Degree Days  
Heating Degree Days 0 6  
Month to date heating degree days 20 46  
Since 1 July heating degree days 102 128  
Cooling Degree Days 0 1  
Month to date cooling degree days 28 15  
Year to date cooling degree days 476 367  
Growing Degree Days 16 (Base 50)    
Moisture  
Dew Point 63 °F    
Average Humidity 91    
Maximum Humidity 100    
Minimum Humidity 81    
Precipitation  
Precipitation 0.38 in 0.07 in 0.52 in (1954)
Month to date precipitation 0.49 0.69  
Year to date precipitation 14.72 15.92  
Snow  
Snow 0.00 in 0.00 in 0.00 in ()
Month to date snowfall 0.0 0.0  
Since 1 July snowfall 0.0 0.0  
Since 1 September snowfall 0.0 0.0  
Snow Depth 0.00 in    
Sea Level Pressure  
Sea Level Pressure 29.69 in    
Wind  
Wind Speed 7 mph (North)    
Max Wind Speed 16 mph    
Max Gust Speed 20 mph    
Visibility 9 miles    
Events Rain    
T = Trace of Precipitation, MM = Missing Value Source: NWS Daily Summary

Daily Weather History Graph

Daily Weather History Graph

Search for Another Location

Airport or City:

Trip Planner

Search our weather history database for the weather conditions in past years. The results will help you decide how hot, cold, wet, or windy it might be!

Date:

Astronomy

Sep. 09, 2013 Rise Set
Actual Time 6:58 AM CDT 7:52 PM CDT
Civil Twilight 6:26 AM CDT 8:24 PM CDT
Nautical Twilight 5:48 AM CDT 9:01 PM CDT
Astronomical Twilight 5:08 AM CDT 9:41 PM CDT
Moon 11:44 AM CDT (9/9) 9:45 PM CDT (9/9)
Length of Visible Light 13h 57m
Length of Day
12h 54m
Waxing Crescent, 19% of the Moon is Illuminated
Sep 9
Waxing Crescent
Sep 12
First Quarter
Sep 19
Full
Sep 26
Last Quarter
Oct 4
New

Hourly Weather History & Observations

Time (CDT) Temp. Dew Point Humidity Pressure Visibility Wind Dir Wind Speed Gust Speed Precip Events Conditions
12:53 AM 64.9 °F 63.0 °F 93% 29.79 in 10.0 mi SSE 8.1 mph - N/A   Overcast
1:17 AM 64.4 °F 62.6 °F 94% 29.78 in 10.0 mi SSE 6.9 mph - N/A   Overcast
1:53 AM 64.9 °F 63.0 °F 93% 29.77 in 10.0 mi SE 8.1 mph - N/A   Overcast
2:45 AM 64.4 °F 62.6 °F 94% 29.75 in 6.0 mi SE 10.4 mph - N/A   Overcast
2:53 AM 64.0 °F 63.0 °F 96% 29.74 in 5.0 mi SE 9.2 mph - N/A   Overcast
3:53 AM 64.0 °F 63.0 °F 96% 29.71 in 7.0 mi SE 8.1 mph - N/A   Overcast
4:14 AM 64.4 °F 62.6 °F 94% 29.71 in 9.0 mi SE 12.7 mph - N/A   Overcast
4:40 AM 62.6 °F 62.6 °F 100% 29.72 in 5.0 mi SE 9.2 mph - 0.00 in Rain Light Rain
4:53 AM 63.0 °F 63.0 °F 100% 29.71 in 4.0 mi ESE 8.1 mph - 0.01 in Rain Light Rain
5:53 AM 63.0 °F 63.0 °F 100% 29.68 in 4.0 mi East 9.2 mph - 0.19 in Rain Heavy Rain
6:10 AM 62.6 °F 62.6 °F 100% 29.64 in 5.0 mi NE 11.5 mph - 0.07 in Rain Rain
6:26 AM 62.6 °F 62.6 °F 100% 29.64 in 6.0 mi East 8.1 mph - 0.11 in Rain Rain
6:53 AM 63.0 °F 62.1 °F 97% 29.63 in 7.0 mi East 10.4 mph - 0.15 in Rain Light Rain
7:13 AM 62.6 °F 62.6 °F 100% 29.60 in 7.0 mi ENE 11.5 mph - 0.01 in Rain Light Rain
7:53 AM 64.0 °F 63.0 °F 96% 29.62 in 9.0 mi Calm Calm - 0.02 in Rain Light Rain
8:53 AM 64.9 °F 63.0 °F 93% 29.64 in 9.0 mi Calm Calm - 0.01 in   Overcast
9:53 AM 64.9 °F 64.0 °F 97% 29.64 in 9.0 mi Calm Calm - N/A   Overcast
10:53 AM 66.9 °F 64.0 °F 90% 29.64 in 10.0 mi WNW 4.6 mph - N/A   Overcast
11:53 AM 69.1 °F 64.9 °F 87% 29.63 in 10.0 mi NNW 8.1 mph - N/A   Overcast
12:25 PM 69.8 °F 64.4 °F 83% 29.62 in 10.0 mi North 5.8 mph - N/A   Overcast
12:53 PM 70.0 °F 64.0 °F 81% 29.62 in 10.0 mi North 5.8 mph - N/A   Overcast
1:53 PM 68.0 °F 64.0 °F 87% 29.63 in 10.0 mi North 11.5 mph - N/A   Overcast
2:53 PM 68.0 °F 64.0 °F 87% 29.64 in 10.0 mi North 12.7 mph - N/A   Overcast
3:25 PM 66.2 °F 62.6 °F 88% 29.64 in 10.0 mi North 12.7 mph - N/A   Overcast
3:53 PM 68.0 °F 63.0 °F 84% 29.64 in 10.0 mi North 10.4 mph - N/A   Overcast
4:53 PM 68.0 °F 64.0 °F 87% 29.65 in 10.0 mi NNW 9.2 mph - N/A   Overcast
5:53 PM 66.9 °F 64.0 °F 90% 29.68 in 10.0 mi NW 12.7 mph - N/A   Overcast
6:45 PM 66.2 °F 62.6 °F 88% 29.68 in 10.0 mi NNW 12.7 mph - N/A   Mostly Cloudy
6:53 PM 66.0 °F 63.0 °F 90% 29.69 in 10.0 mi NNW 11.5 mph 19.6 mph N/A   Mostly Cloudy
7:12 PM 66.2 °F 62.6 °F 88% 29.70 in 10.0 mi NW 11.5 mph - N/A   Overcast
7:27 PM 64.4 °F 62.6 °F 94% 29.70 in 10.0 mi NNW 9.2 mph - N/A   Mostly Cloudy
7:53 PM 64.9 °F 62.1 °F 90% 29.71 in 10.0 mi NNW 5.8 mph - N/A   Overcast
8:26 PM 64.4 °F 62.6 °F 94% 29.71 in 10.0 mi NNW 4.6 mph - N/A   Overcast
8:53 PM 64.9 °F 62.1 °F 90% 29.72 in 10.0 mi NW 5.8 mph - N/A   Overcast
9:50 PM 64.4 °F 62.6 °F 94% 29.73 in 10.0 mi NW 6.9 mph - N/A   Overcast
9:53 PM 64.9 °F 62.1 °F 90% 29.74 in 10.0 mi NW 5.8 mph - N/A   Overcast
10:36 PM 64.4 °F 62.6 °F 94% 29.74 in 10.0 mi North 5.8 mph - N/A   Overcast
10:53 PM 64.0 °F 62.1 °F 93% 29.75 in 10.0 mi NW 3.5 mph - N/A   Overcast
11:53 PM 63.0 °F 62.1 °F 97% 29.75 in 10.0 mi Calm Calm - N/A   Overcast